| time (UTC) | temp F | wind direction | speed MPH | gust MPH | rain 1hr in | rain 24hr in | rain mn in | humidity % | barometer mb |
| 20260831091538 | 65 | 161 | 0.0 | 0.0 | 0.00 | 0.06 | 0.00 | 96 | 1019.9 |
| 20260831090026 | 65 | 161 | 0.0 | 0.0 | 0.00 | 0.06 | 0.00 | 95 | 1019.8 |
| 20260831084525 | 65 | 161 | 0.0 | 0.0 | 0.00 | 0.06 | 0.00 | 96 | 1020.1 |
| 20260831083024 | 65 | 161 | 0.0 | 0.0 | 0.00 | 0.06 | 0.00 | 96 | 1020.3 |
| 20260831081524 | 65 | 161 | 0.0 | 0.0 | 0.00 | 0.06 | 0.00 | 95 | 1020.3 |
| 20260831080027 | 65 | 161 | 0.0 | 0.0 | 0.00 | 0.06 | 0.00 | 95 | 1020.1 |
| 20260831074521 | 66 | 161 | 0.0 | 0.0 | 0.00 | 0.06 | 0.00 | 95 | 1019.9 |
| 20260831073019 | 66 | 161 | 0.0 | 0.0 | 0.00 | 0.06 | 0.00 | 95 | 1019.9 |
| 20260831071519 | 66 | 161 | 0.0 | 0.0 | 0.00 | 0.06 | 0.00 | 95 | 1020.0 |
| 20260831070018 | 67 | 161 | 0.0 | 0.0 | 0.00 | 0.06 | 0.00 | 95 | 1019.9 |
| 20260831064515 | 67 | 161 | 0.0 | 0.0 | 0.00 | 0.06 | 0.00 | 95 | 1020.1 |
| 20260831063014 | 67 | 161 | 0.0 | 0.0 | 0.00 | 0.06 | 0.00 | 95 | 1019.9 |
| 20260831061517 | 68 | 161 | 0.0 | 0.0 | 0.00 | 0.06 | 0.00 | 95 | 1019.9 |
| 20260831060010 | 68 | 161 | 0.0 | 0.0 | 0.00 | 0.06 | 0.00 | 95 | 1020.1 |
| 20260831054511 | 68 | 161 | 0.0 | 0.0 | 0.00 | 0.06 | 0.00 | 95 | 1019.8 |
| 20260831053007 | 68 | 161 | 0.0 | 0.0 | 0.00 | 0.06 | 0.00 | 95 | 1019.8 |
| 20260831051507 | 68 | 161 | 0.0 | 0.0 | 0.00 | 0.06 | 0.00 | 95 | 1019.7 |
| 20260831050005 | 68 | 161 | 0.0 | 0.0 | 0.00 | 0.06 | 0.00 | 95 | 1019.7 |
| 20260831044503 | 69 | 161 | 0.0 | 0.0 | 0.00 | 0.06 | 0.00 | 95 | 1019.5 |
| 20260831043001 | 69 | 161 | 0.0 | 0.0 | 0.00 | 0.06 | 0.00 | 95 | 1019.5 |
| 20260831041613 | 69 | 161 | 0.0 | 0.0 | 0.00 | 0.06 | 0.00 | 95 | 1019.5 |
| 20260831040056 | 69 | 161 | 0.0 | 0.0 | 0.00 | 0.06 | 0.00 | 95 | 1019.3 |
| 20260831034556 | 70 | 161 | 0.0 | 0.0 | 0.01 | 0.06 | 0.06 | 94 | 1019.4 |
| 20260831033056 | 70 | 161 | 0.0 | 0.0 | 0.01 | 0.06 | 0.06 | 95 | 1019.5 |
| 20260831031555 | 70 | 161 | 0.0 | 0.0 | 0.01 | 0.06 | 0.06 | 95 | 1019.8 |
| 20260831030055 | 70 | 161 | 0.0 | 0.0 | 0.01 | 0.06 | 0.06 | 95 | 1019.9 |
| 20260831024555 | 70 | 161 | 0.0 | 0.0 | 0.00 | 0.05 | 0.05 | 95 | 1020.0 |
| 20260831023054 | 70 | 161 | 0.0 | 0.0 | 0.00 | 0.05 | 0.05 | 94 | 1020.0 |
| 20260831021555 | 70 | 161 | 0.0 | 0.0 | 0.01 | 0.05 | 0.05 | 94 | 1020.0 |
| 20260831020053 | 70 | 161 | 0.0 | 0.0 | 0.02 | 0.05 | 0.05 | 94 | 1020.0 |
| 20260831014551 | 70 | 161 | 0.0 | 0.0 | 0.03 | 0.05 | 0.05 | 94 | 1019.9 |
| 20260831013105 | 71 | 161 | 0.0 | 0.0 | 0.04 | 0.05 | 0.05 | 94 | 1019.8 |
| 20260831011551 | 71 | 161 | 0.0 | 0.0 | 0.04 | 0.04 | 0.04 | 94 | 1019.8 |
| 20260831010053 | 71 | 161 | 0.0 | 0.0 | 0.03 | 0.03 | 0.03 | 93 | 1019.7 |
| 20260831004550 | 71 | 161 | 0.0 | 0.0 | 0.02 | 0.02 | 0.02 | 93 | 1019.6 |
| 20260831003049 | 71 | 161 | 0.0 | 0.0 | 0.01 | 0.01 | 0.01 | 92 | 1019.5 |
| 20260831001549 | 71 | 161 | 0.0 | 0.0 | 0.00 | 0.00 | 0.00 | 91 | 1019.3 |
| 20260831000048 | 72 | 161 | 0.0 | 0.0 | 0.00 | 0.00 | 0.00 | 91 | 1019.1 |
| 20260830234549 | 72 | 161 | 0.0 | 0.0 | 0.00 | 0.00 | 0.00 | 90 | 1018.9 |
| 20260830233047 | 72 | 161 | 0.0 | 0.0 | 0.00 | 0.00 | 0.00 | 89 | 1018.8 |
| 20260830231558 | 73 | 161 | 0.0 | 0.0 | 0.00 | 0.00 | 0.00 | 88 | 1018.7 |
| 20260830230049 | 73 | 161 | 0.0 | 0.0 | 0.00 | 0.00 | 0.00 | 87 | 1018.7 |
| 20260830224554 | 74 | 161 | 0.0 | 0.0 | 0.00 | 0.00 | 0.00 | 87 | 1018.8 |
| 20260830223046 | 74 | 161 | 0.0 | 0.0 | 0.00 | 0.00 | 0.00 | 84 | 1018.6 |
| 20260830221546 | 75 | 163 | 0.0 | 0.0 | 0.00 | 0.00 | 0.00 | 84 | 1019.0 |
| 20260830220043 | 75 | 175 | 0.0 | 2.0 | 0.00 | 0.00 | 0.00 | 82 | 1019.1 |
| 20260830214541 | 76 | 264 | 0.0 | 1.0 | 0.00 | 0.00 | 0.00 | 80 | 1019.0 |
| 20260830213041 | 76 | 205 | 0.0 | 4.0 | 0.00 | 0.00 | 0.00 | 80 | 1018.7 |
| 20260830211540 | 76 | 189 | 0.0 | 4.0 | 0.00 | 0.00 | 0.00 | 79 | 1018.9 |
| 20260830210039 | 77 | 183 | 0.0 | 5.0 | 0.00 | 0.00 | 0.00 | 79 | 1019.0 |
| 20260830204538 | 76 | 173 | 0.0 | 2.0 | 0.00 | 0.00 | 0.00 | 79 | 1019.2 |
| 20260830203038 | 76 | 162 | 1.0 | 6.0 | 0.00 | 0.00 | 0.00 | 79 | 1019.2 |
| 20260830201541 | 75 | 185 | 1.0 | 3.0 | 0.00 | 0.00 | 0.00 | 80 | 1019.3 |
| 20260830200033 | 75 | 123 | 0.0 | 6.0 | 0.00 | 0.00 | 0.00 | 82 | 1019.4 |
| 20260830194533 | 74 | 128 | 0.0 | 2.0 | 0.00 | 0.00 | 0.00 | 81 | 1019.5 |
| 20260830193037 | 74 | 161 | 0.0 | 5.0 | 0.00 | 0.00 | 0.00 | 80 | 1019.7 |
| 20260830191528 | 75 | 175 | 0.0 | 2.0 | 0.00 | 0.00 | 0.00 | 80 | 1020.0 |
| 20260830190026 | 75 | 148 | 0.0 | 4.0 | 0.00 | 0.00 | 0.00 | 78 | 1020.2 |
| 20260830184524 | 76 | 225 | 0.0 | 2.0 | 0.00 | 0.00 | 0.00 | 73 | 1020.3 |
| 20260830183023 | 76 | 183 | 0.0 | 2.0 | 0.00 | 0.00 | 0.00 | 74 | 1020.5 |
| 20260830181522 | 77 | 178 | 0.0 | 8.0 | 0.00 | 0.00 | 0.00 | 69 | 1020.7 |
| 20260830180039 | 78 | 75 | 1.0 | 8.0 | 0.00 | 0.00 | 0.00 | 68 | 1020.8 |
| 20260830174522 | 78 | 283 | 1.0 | 2.0 | 0.00 | 0.00 | 0.00 | 66 | 1020.8 |
| 20260830173015 | 77 | 283 | 1.0 | 4.0 | 0.00 | 0.00 | 0.00 | 67 | 1021.1 |
| 20260830171515 | 77 | 283 | 1.0 | 6.0 | 0.00 | 0.00 | 0.00 | 64 | 1021.3 |
| 20260830170014 | 78 | 283 | 0.0 | 3.0 | 0.00 | 0.00 | 0.00 | 62 | 1021.2 |
| 20260830164513 | 78 | 283 | 1.0 | 4.0 | 0.00 | 0.00 | 0.00 | 63 | 1021.3 |
| 20260830163020 | 77 | 285 | 0.0 | 3.0 | 0.00 | 0.00 | 0.00 | 62 | 1021.4 |
| 20260830161509 | 78 | 284 | 0.0 | 4.0 | 0.00 | 0.00 | 0.00 | 60 | 1021.7 |
| 20260830160010 | 78 | 261 | 0.0 | 3.0 | 0.00 | 0.00 | 0.00 | 67 | 1021.9 |
| 20260830154507 | 79 | 151 | 2.0 | 5.0 | 0.00 | 0.00 | 0.00 | 57 | 1022.0 |
| 20260830153004 | 78 | 263 | 1.0 | 3.0 | 0.00 | 0.00 | 0.00 | 66 | 1022.0 |
| 20260830151604 | 77 | 219 | 2.0 | 7.0 | 0.00 | 0.00 | 0.00 | 66 | 1022.4 |
| 20260830150055 | 75 | 275 | 0.0 | 5.0 | 0.00 | 0.00 | 0.00 | 67 | 1022.8 |
| 20260830144552 | 73 | 275 | 0.0 | 2.0 | 0.00 | 0.00 | 0.00 | 72 | 1022.9 |
| 20260830143048 | 72 | 274 | 2.0 | 5.0 | 0.00 | 0.00 | 0.00 | 68 | 1022.8 |
| 20260830141554 | 71 | 285 | 0.0 | 4.0 | 0.00 | 0.00 | 0.00 | 72 | 1022.8 |
| 20260830140046 | 69 | 126 | 0.0 | 4.0 | 0.00 | 0.00 | 0.00 | 75 | 1022.9 |
| 20260830134537 | 67 | 153 | 0.0 | 4.0 | 0.00 | 0.00 | 0.00 | 80 | 1023.1 |
| 20260830133036 | 65 | 221 | 0.0 | 2.0 | 0.00 | 0.00 | 0.00 | 90 | 1023.2 |
| 20260830131528 | 64 | 153 | 0.0 | 0.0 | 0.00 | 0.00 | 0.00 | 95 | 1023.3 |
| 20260830130023 | 62 | 171 | 0.0 | 0.0 | 0.00 | 0.00 | 0.00 | 96 | 1023.5 |
| 20260830124521 | 61 | 71 | 0.0 | 0.0 | 0.00 | 0.00 | 0.00 | 96 | 1023.5 |
| 20260830123024 | 60 | 71 | 0.0 | 0.0 | 0.00 | 0.00 | 0.00 | 96 | 1023.6 |
| 20260830121517 | 60 | 71 | 0.0 | 0.0 | 0.00 | 0.00 | 0.00 | 96 | 1023.7 |
| 20260830120016 | 59 | 71 | 0.0 | 0.0 | 0.00 | 0.00 | 0.00 | 96 | 1023.9 |
| 20260830114522 | 59 | 71 | 0.0 | 0.0 | 0.00 | 0.00 | 0.00 | 96 | 1023.8 |
| 20260830113012 | 58 | 71 | 0.0 | 0.0 | 0.00 | 0.00 | 0.00 | 96 | 1023.8 |
| 20260830111511 | 58 | 71 | 0.0 | 0.0 | 0.00 | 0.00 | 0.00 | 96 | 1023.7 |
| 20260830110009 | 58 | 71 | 0.0 | 0.0 | 0.00 | 0.00 | 0.00 | 96 | 1023.7 |
| 20260830104507 | 57 | 281 | 0.0 | 0.0 | 0.00 | 0.00 | 0.00 | 95 | 1023.6 |
| 20260830103007 | 57 | 281 | 0.0 | 0.0 | 0.00 | 0.00 | 0.00 | 95 | 1023.6 |
| 20260830101508 | 57 | 281 | 0.0 | 0.0 | 0.00 | 0.00 | 0.00 | 95 | 1023.5 |
| 20260830100005 | 57 | 281 | 0.0 | 0.0 | 0.00 | 0.00 | 0.00 | 95 | 1023.6 |
| 20260830094508 | 57 | 281 | 0.0 | 0.0 | 0.00 | 0.00 | 0.00 | 95 | 1023.6 |
| 20260830093004 | 57 | 281 | 0.0 | 0.0 | 0.00 | 0.00 | 0.00 | 95 | 1023.6 |